Regional Weather Roundup
Issued by NWS

Home | Current Version | Previous Version | Graphics & Text | Print | Product List | Glossary On
Versions: 1 2 3 4 5 6 7 8 9 10 11 12 13 14 15 16 17 18 19 20 21 22 23 24 25 26 27 28 29 30 31 32 33 34 35 36 37 38 39 40 41 42 43 44 45 46 47 48 49 50
000
ASUS44 KMEG 031710
RWRTN
TENNESSEE HOURLY STATE WEATHER ROUNDUP
NATIONAL WEATHER SERVICE MEMPHIS TN
1200 PM CDT MON AUG 03 2015

TNZ002-004-019-021-049-052-054-088>092-031800-
WEST TENNESSEE

CITY           SKY/WX    TMP DP  RH WIND       PRES   REMARKS
MEMPHIS INTL   MOSUNNY   95  67  39 N5        29.96S HX  99
NWS MEMPHIS      N/A     92 N/A N/A MISG        N/A
JACKSON        SUNNY     93  70  46 W6        29.96F HX  99
DYERSBURG        N/A    N/A N/A N/A MISG        N/A
PARIS          SUNNY     88  70  55 W5        29.96S HX  92
LEXINGTON      SUNNY     90  70  51 W7        29.95F HX  95
$$

TNZ008-025-027-028-033-062-065-066-031800-
NORTH MIDDLE TENNESSEE

CITY           SKY/WX    TMP DP  RH WIND       PRES   REMARKS
NASHVILLE      MOSUNNY   92  67  44 W8        29.96S HX  95
CLARKSVILLE    SUNNY     88  70  55 VRB5      29.93F HX  93
SMYRNA         MOSUNNY   96  68  40 NW8       29.97R HX 100
CROSSVILLE     MOSUNNY   83  63  50 VRB5      30.03F
$$

TNZ061-075-076-078-094-096-097-031800-
SOUTH MIDDLE TENNESSEE

CITY           SKY/WX    TMP DP  RH WIND       PRES   REMARKS
FAYETTEVILLE     N/A     88  64  45 NE6       29.99R
TULLAHOMA      SUNNY     88  64  45 N7        30.00S
WINCHESTER     SUNNY     88  64  45 NE5       29.99S
COLUMBIA       SUNNY     91  70  49 VRB5      29.96S HX  97
SHELBYVILLE    SUNNY     90  70  51 N8        29.99R HX  95
$$

TNZ017-018-042-046-047-031800-
NORTHEAST TENNESSEE

CITY           SKY/WX    TMP DP  RH WIND       PRES   REMARKS
TRI CITIES     MOSUNNY   85  56  37 S7        29.99F
ELIZABETHTON   SUNNY     82  59  44 VRB3      30.00S
$$

TNZ012-013-036-069-073-074-031800-
CENTRAL EAST TENNESSEE

CITY           SKY/WX    TMP DP  RH WIND       PRES   REMARKS
KNOXVILLE      MOSUNNY   86  56  35 CALM      29.97F
OAK RIDGE      SUNNY     87  62  43 CALM      29.98F
GATLINBURG       N/A     86  57  37 E7        29.98S
MORRISTOWN     SUNNY     84  63  48 CALM      30.00F
$$

TNZ083-085-099-031800-
SOUTHEAST TENNESSEE

CITY           SKY/WX    TMP DP  RH WIND       PRES   REMARKS
CHATTANOOGA    MOSUNNY   90  59  35 N7        29.97S
$$

SKY/WX REPORTED AS FAIR MEANS FEW OR NO CLOUDS BELOW
12 THOUSAND FEET.




USA.gov is the U.S. government's official web portal to all federal, state and local government web resources and services.